Regional Weather Roundup
Issued by NWS

Home | Current Version | Previous Version | Graphics & Text | Print | Product List | Glossary On
Versions: 1 2 3 4 5 6 7 8 9 10 11 12 13 14 15 16 17 18 19 20 21 22 23 24 25 26 27 28 29 30 31 32 33 34 35 36 37 38 39 40 41 42 43 44 45 46 47 48 49 50
000
ASUS43 KLSX 301910
RWRMO

WEATHER SUMMARY FOR MISSOURI
NATIONAL WEATHER SERVICE SPRINGFIELD MO
200 PM CDT THU MAR 30 2017

NOTE: "FAIR" INDICATES FEW OR NO CLOUDS BELOW 12,000 FEET WITH NO
       SIGNIFICANT WEATHER AND/OR OBSTRUCTIONS TO VISIBILITY.
       CURRENT SKY AND/OR WEATHER CONDITIONS ARE NOT AVAILABLE FOR
       CHILLICOTHE AND FARMINGTON.

MOZ001>031-035>038-043-044-053-054-302000-
...NORTHERN AND WESTERN MISSOURI...

CITY           SKY/WX    TMP DP  RH WIND       PRES   REMARKS
KANSAS CTY INT CLOUDY    50  48  93 N10       29.58S
KANSAS C DTWN  LGT RAIN  50  48  93 NW8       29.58S
LEE`S SUMMIT   CLOUDY    52  46  80 N9        29.58R
ST JOSEPH      CLOUDY    48  46  93 N14       29.61S
CHILLICOTHE      N/A     49  48  97 N5        29.59S
KIRKSVILLE     LGT RAIN  48  48 100 N9        29.57F

$$
MOZ066>068-077>081-088>096-101>105-302000-
...SOUTHWEST MISSOURI...

CITY           SKY/WX    TMP DP  RH WIND       PRES   REMARKS
SPRINGFIELD    CLOUDY    49  43  80 SW18      29.61S
JOPLIN         LGT RAIN  48  48 100 SW16      29.62S FOG
BRANSON        CLOUDY    48  41  76 SW10G17   29.66R

$$
MOZ032>034-039>042-045>050-055>058-069>072-302000-
...CENTRAL MISSOURI...

CITY           SKY/WX    TMP DP  RH WIND       PRES   REMARKS
COLUMBIA       CLOUDY    54  44  69 W10       29.57S
JEFFERSON CITY CLOUDY    57  42  57 SW12      29.57S
ROLLA          CLOUDY    54  45  71 SW15      29.57R
SEDALIA        LGT RAIN  52  45  77 SW12      29.58S
WHITEMAN AFB   CLOUDY    52  52 100 SW13      29.56S
WARRENSBURG    CLOUDY    50  45  81 W7        29.58R
OSAGE BEACH    CLOUDY    52  42  69 SW14      29.60S

$$
MOZ051-052-059>065-302000-
...EAST CENTRAL MISSOURI...

CITY           SKY/WX    TMP DP  RH WIND       PRES   REMARKS
ST LOUIS INTL  CLOUDY    62  57  83 W12       29.53F
SPIRIT OF STL  CLOUDY    58  56  93 W10       29.54R
ST CHARLES     LGT RAIN  60  59  96 W14       29.52S

$$
MOZ072>076-082>087-097>100-106>115-302000-
...SOUTH CENTRAL AND SOUTHEAST MISSOURI...

CITY           SKY/WX    TMP DP  RH WIND       PRES   REMARKS
CAPE GIRARDEAU TSTM      64  58  80 S14       29.55S
FARMINGTON     CLOUDY    62  56  80 W10       29.54F
POPLAR BLUFF   SUNNY     68  51  54 SW31G41   29.55F
WEST PLAINS    CLOUDY    54  43  66 SW17G26   29.62S

$$



USA.gov is the U.S. government's official web portal to all federal, state and local government web resources and services.